Location: Contre
(49.7477°N, 2.0963°E)
Time: 10:41:38
(UTC+00:00)

BREEZE-M DEB (TANK) - Pass Details

Date: 03 February 2023
Orbit: 426 x 13838 km, 45.9° (Epoch: 20 March)

Event Time Altitude Azimuth Distance (km) Brightness Sun altitude
Rises 17:13:44 0° 249° (WSW) 2,385 8.8 -4.4°
Reaches altitude 10° 17:15:27 10° 242° (WSW) 1,548 6.5 -4.7°
Maximum altitude 17:18:16 46° 166° (SSE) 743 3.1 -5.1°
Drops below altitude 10° 17:23:27 10° 93° (E) 2,844 5.4 -5.9°
Enters shadow 17:25:24 - 90° (E) 3,769 5.9 -6.2°
